CX2SA-13 Weather Reports


time (UTC)temp
C
wind
direction
speed
KPH
gust
KPH
rain 1hr
cm
rain 24hr
cm
rain mn
cm
humidity
%
barometer
mb
20260506135944 25 67 11.3 14.5 0.00 0.00 0.00 87 1009.1
20260506134445 25 45 12.9 14.5 0.00 0.00 0.00 87 1009.4
20260506132946 26 45 12.9 0.0 0.00 0.00 0.00 86 1009.1
20260506131444 26 45 9.7 12.9 0.00 0.00 0.00 86 1009.1
20260506125945 26 67 6.4 9.7 0.00 0.00 0.00 87 1009.4
20260506124444 25 90 8.0 12.9 0.00 0.00 0.00 90 1009.4
20260506122944 24 45 8.0 0.0 0.00 0.00 0.00 90 1009.4
20260506121445 24 90 6.4 11.3 0.00 0.00 0.00 91 1009.4
20260506115944 24 22 4.8 8.0 0.00 0.00 0.00 92 1009.4
20260506114444 23 22 8.0 0.0 0.00 0.00 0.00 93 1009.4
20260506112945 23 337 8.0 9.7 0.00 0.00 0.00 94 1009.1
20260506111444 22 360 6.4 8.0 0.00 0.00 0.00 95 1009.1
20260506105945 22 67 6.4 11.3 0.00 0.00 0.00 95 1008.8
20260506104445 22 45 6.4 16.1 0.00 0.00 0.00 95 1008.8
20260506102944 22 45 4.8 11.3 0.00 0.00 0.00 96 1008.8
20260506101445 22 337 3.2 6.4 0.00 0.00 0.00 96 1008.8
20260506095946 22 112 0.0 3.2 0.00 0.00 0.00 96 1008.4
20260506094444 22 67 0.0 4.8 0.00 0.00 0.00 96 1008.8
20260506092945 22 22 3.2 4.8 0.00 0.00 0.00 97 1008.8
20260506091444 21 90 3.2 8.0 0.00 0.00 0.00 97 1008.8
20260506085944 21 112 4.8 0.0 0.00 0.00 0.00 97 1009.1
20260506084445 21 112 3.2 6.4 0.00 0.00 0.00 97 1009.1
20260506082944 21 112 8.0 0.0 0.00 0.00 0.00 97 1009.1
20260506081445 21 112 8.0 0.0 0.00 0.00 0.00 97 1009.1
20260506072945 21 112 4.8 6.4 0.00 0.00 0.00 97 1009.1
20260506071446 21 67 6.4 8.0 0.00 0.00 0.00 97 1009.4
20260506061444 22 0.0 0.0 0.00 0.00 0.00 96 1009.4
20260506044445 21 360 3.2 0.0 0.00 0.00 0.00 98 1009.4
20260506042946 21 337 3.2 0.0 0.00 0.00 0.00 98 1009.4
20260506041444 21 22 0.0 4.8 0.00 0.00 0.00 98 1009.4
20260506035945 21 22 3.2 0.0 0.00 0.00 0.00 98 1009.8
20260506034443 21 0.0 0.0 0.00 0.00 0.00 98 1009.8
20260506032944 21 315 0.0 3.2 0.00 0.00 0.00 98 1009.8
20260506031445 21 90 0.0 3.2 0.00 0.00 0.00 98 1009.8
20260506025944 21 0.0 0.0 0.00 0.00 1.70 98 1009.4
20260506024445 21 0.0 0.0 0.00 0.00 1.70 98 1009.4
20260506022945 21 0.0 0.0 0.00 0.00 1.70 98 1009.8
20260506021444 21 247 3.2 0.0 0.00 0.00 1.70 97 1009.4
20260506015945 21 315 0.0 1.6 0.00 0.00 1.70 97 1009.4
20260506014446 21 45 1.6 3.2 0.00 0.00 1.70 97 1009.4
20260506012944 21 90 0.0 3.2 0.00 0.00 1.70 97 1009.4
20260506011445 21 45 0.0 3.2 0.00 0.00 1.70 97 1009.4
20260506010013 21 90 0.0 3.2 0.00 0.00 1.70 97 1009.4
20260506004444 21 112 3.2 4.8 0.00 0.00 1.70 97 1009.4
20260506002945 21 112 1.6 3.2 0.00 0.00 1.70 97 1008.8
20260506001444 21 112 6.4 8.0 0.00 0.00 1.70 97 1008.8
20260505235945 21 112 3.2 0.0 0.00 0.00 1.70 97 1008.8
20260505234445 22 0.0 0.0 0.00 0.00 1.70 97 1008.8
20260505232944 22 112 0.0 1.6 0.00 0.00 1.70 97 1008.8
20260505231445 22 112 3.2 0.0 0.00 0.00 1.70 96 1008.8
20260505225943 22 112 3.2 0.0 0.00 0.00 1.70 96 1008.8
20260505224444 22 247 0.0 3.2 0.00 0.00 1.70 96 1008.8
20260505222945 22 247 8.0 14.5 0.00 0.00 1.63 95 1008.4
20260505221443 22 315 3.2 0.0 0.00 0.00 1.40 94 1008.4
20260505215944 22 90 9.7 14.5 0.00 0.00 1.37 94 1008.1
20260505214445 22 90 3.2 8.0 0.00 0.00 1.32 94 1008.1
20260505212944 22 112 11.3 14.5 0.00 0.00 1.32 94 1008.1
20260505211445 22 112 8.0 9.7 0.00 0.00 1.32 94 1008.4
20260505205945 22 67 8.0 11.3 0.00 0.00 1.32 95 1008.4
20260505204444 22 90 9.7 0.0 0.00 0.00 1.32 95 1008.8
20260505202945 23 22 3.2 0.0 0.00 0.00 1.32 95 1009.1
20260505201445 23 90 4.8 0.0 0.00 0.00 1.32 94 1008.8
20260505195944 23 337 9.7 19.3 0.00 0.00 0.94 94 1009.4
20260505194445 28 360 3.2 0.0 0.00 0.00 0.00 76 1008.8
20260505192943 28 45 6.4 9.7 0.00 0.00 0.00 74 1008.4
20260505191444 29 45 8.0 0.0 0.00 0.00 0.00 72 1008.4
20260505185945 30 22 9.7 11.3 0.00 0.00 0.00 71 1008.4
20260505184444 31 292 8.0 11.3 0.00 0.00 0.00 68 1008.8
20260505182944 31 90 8.0 9.7 0.00 0.00 0.00 68 1008.4
20260505181445 31 112 8.0 9.7 0.00 0.00 0.00 69 1008.8
20260505175944 30 45 6.4 11.3 0.00 0.00 0.00 71 1008.8
20260505174445 31 67 11.3 12.9 0.00 0.00 0.00 69 1008.8
20260505172945 30 45 8.0 12.9 0.00 0.00 0.00 72 1009.1
20260505171444 30 90 14.5 0.0 0.00 0.00 0.00 71 1009.4
20260505165945 30 45 6.4 11.3 0.00 0.00 0.00 71 1009.4
20260505164443 31 45 8.0 9.7 0.00 0.00 0.00 68 1009.4
20260505162944 30 360 9.7 11.3 0.00 0.00 0.00 70 1010.5
20260505161445 31 22 6.4 9.7 0.00 0.00 0.00 69 1010.5
20260505152945 30 67 3.2 8.0 0.00 0.00 0.00 73 1011.1
20260505151444 29 22 11.3 0.0 0.00 0.00 0.00 74 1011.1